Wind_Speed
24 24 24 23 23 23 22 20 19 19 19 19 18 17 16 16 16 16 15 14 14 13 13 13 12 12 12 11 11 11 11 11 10 10 10 10 10 9 9 9 8 8 8 8 8 7 7 7 7
24 24 25 25 25 24 23 21 21 20 20 20 20 19 18 17 17 17 16 15 15 14 14 14 14 13 13 12 12 13 12 12 12 12 12 11 11 11 10 10 10 10 10 10 10 9 9 9 8
25 25 25 26 26 25 23 22 22 22 22 21 21 21 19 18 18 18 18 18 17 17 16 16 15 15 15 14 14 14 14 14 14 14 13 13 13 12 12 12 12 12 12 11 11 11 11 10 10
26 26 27 27 26 25 24 24 24 24 24 23 22 22 21 20 20 19 19 19 19 18 18 18 17 17 17 16 16 15 15 15 15 15 15 15 14 14 14 13 13 13 13 13 13 12 12 12 11
28 28 28 28 26 25 25 26 26 25 25 25 24 23 22 21 21 21 20 20 20 20 19 19 19 19 18 18 17 17 17 17 17 17 17 16 16 16 16 15 15 14 14 14 14 14 14 14 13
29 30 29 28 27 27 27 28 28 27 27 27 26 26 24 23 23 22 22 21 21 21 20 19 19 19 19 18 19 19 18 19 18 18 18 18 18 18 18 18 17 17 16 16 16 15 15 16 15
30 30 30 29 29 29 29 30 30 29 28 28 28 27 26 26 25 24 24 23 22 22 21 21 21 20 20 19 20 20 20 20 20 20 20 20 19 19 20 20 20 19 19 18 18 17 17 17 17
30 31 31 30 30 30 30 31 31 30 30 29 29 28 27 27 27 26 25 24 24 23 22 22 23 22 22 22 21 21 21 21 21 21 21 21 21 21 21 21 21 21 21 20 20 20 20 19 19
31 32 31 30 30 29 29 30 31 31 31 30 30 29 28 28 27 27 27 26 25 25 24 24 24 24 23 24 23 23 23 23 23 23 23 23 24 23 23 23 23 23 23 23 23 23 22 22 22
32 32 31 31 31 31 31 31 32 32 31 31 30 29 29 29 28 28 27 27 27 27 26 26 25 25 25 25 26 25 25 25 25 25 25 25 25 26 25 25 25 25 25 25 25 25 25 24 24
32 32 32 33 33 33 33 33 33 33 32 32 31 30 30 30 30 29 29 29 29 29 28 27 27 27 28 27 28 28 27 27 27 27 26 27 27 27 28 27 27 27 27 28 27 27 27 27 26
32 31 33 33 34 33 34 34 33 33 32 32 32 32 31 31 31 31 30 30 30 30 30 29 29 29 29 30 29 29 29 29 29 29 29 29 29 29 29 29 29 29 29 29 29 29 29 29 29
31 31 32 34 34 34 34 34 33 33 33 33 33 33 33 32 32 32 32 31 31 31 31 31 31 30 30 31 31 31 31 31 31 31 31 31 31 31 31 31 31 31 31 31 31 31 31 31 31
30 31 32 33 34 34 34 34 34 33 34 33 33 34 35 34 34 34 33 32 32 33 33 32 32 32 32 32 32 32 32 33 33 33 33 34 34 34 34 33 34 33 33 33 33 33 33 33 33
31 31 32 33 35 35 35 35 34 33 35 35 35 35 35 35 35 35 34 34 34 34 34 34 34 33 33 34 34 34 34 34 34 35 35 35 36 36 36 36 36 35 35 35 35 35 35 35 35
32 33 32 32 33 34 36 36 35 35 35 36 36 36 36 36 37 36 36 36 36 35 35 35 35 35 35 35 36 36 36 36 36 36 36 36 36 37 37 38 37 37 37 37 37 37 37 37 37
31 32 32 31 32 33 34 34 34 35 35 36 36 36 36 36 37 37 37 36 36 36 35 36 36 36 36 36 37 38 38 38 38 37 37 38 38 38 39 39 40 39 39 39 39 39 39 39 39
30 31 31 31 31 32 33 34 34 35 35 35 36 36 36 36 36 37 37 37 37 37 37 37 37 37 37 37 37 38 39 39 39 39 39 39 39 38 39 40 41 41 41 40 40 40 41 41 41
31 31 31 31 32 33 33 34 34 35 36 36 36 36 36 36 36 37 38 38 39 39 39 39 38 39 39 39 39 39 39 40 40 41 41 41 40 40 40 41 41 42 42 42 41 41 42 42 42
31 31 31 32 32 33 33 34 35 35 35 35 36 36 36 37 37 37 37 38 39 40 40 40 40 40 40 40 40 41 40 40 41 42 42 41 42 42 41 41 42 42 42 42 43 42 42 43 43
32 32 32 32 33 34 35 35 34 34 35 35 35 36 36 36 36 37 37 38 39 39 40 40 40 41 41 42 42 42 42 42 42 42 42 42 43 43 43 43 43 44 44 44 44 44 44 44 44
33 32 33 33 34 34 35 36 34 34 34 34 34 35 35 36 36 36 37 38 38 39 40 40 41 41 42 42 43 43 43 44 44 43 43 43 43 43 44 44 45 45 45 45 45 45 45 46 46
32 32 33 34 34 35 35 36 35 33 33 33 33 34 35 35 36 37 38 38 39 39 39 40 40 41 42 43 43 44 44 44 44 44 44 45 44 43 44 44 45 45 45 46 46 46 47 47 47
31 32 33 34 34 35 34 36 35 33 32 32 33 33 34 35 35 36 37 38 39 40 40 40 41 42 43 44 44 44 45 45 45 45 45 45 45 44 44 45 45 45 46 47 47 47 48 48 49
31 31 31 32 34 34 33 35 35 32 32 32 33 33 34 34 35 35 36 37 38 40 41 42 42 43 44 44 44 45 46 47 46 46 46 46 45 45 45 46 46 46 46 47 48 48 49 49 49
30 31 31 32 33 33 34 35 34 33 33 33 33 33 34 35 36 36 36 37 38 40 41 43 44 44 44 45 45 46 47 47 47 47 47 46 47 47 47 48 47 47 47 47 48 49 49 49 49
28 30 30 30 32 33 34 34 33 32 33 33 33 33 34 35 36 37 37 38 39 40 41 43 43 44 44 44 45 46 47 47 47 47 48 48 48 48 48 48 48 48 48 47 47 48 49 50 50
28 28 29 29 30 31 33 32 32 31 32 32 32 33 34 34 35 36 37 37 38 39 40 41 42 42 43 44 44 45 45 46 47 48 48 48 48 48 48 47 48 49 49 48 48 48 49 50 51
27 27 28 29 30 31 31 31 30 30 30 30 31 32 33 34 35 36 36 37 37 38 38 39 40 41 42 42 43 44 44 45 45 46 47 47 48 48 48 48 48 49 49 50 50 50 50 50 51
29 28 28 29 29 30 31 30 29 29 29 30 31 32 33 34 35 36 36 36 37 37 37 38 39 40 40 41 42 43 44 44 45 46 46 47 47 47 47 48 48 49 49 50 50 49 50 50 50
Wind_Direction
237 236 234 233 234 233 234 234 234 235 237 237 237 237 237 239 240 241 241 241 243 239 239 239 238 235 230 227 226 228 229 230 231 229 229 230 232 233 232 236 240 241 241 239 240 244 249 248 250
237 237 236 235 235 234 234 236 235 235 236 238 238 239 239 241 242 242 242 243 244 243 242 242 240 236 232 230 230 231 232 234 235 235 234 234 236 236 236 239 242 245 247 250 252 255 259 258 258
236 236 237 236 236 236 235 236 236 236 236 238 239 240 241 242 242 242 242 242 244 246 246 244 241 236 234 233 234 235 236 237 239 240 239 238 240 241 242 245 246 247 249 252 257 258 260 260 261
237 237 238 237 237 236 236 236 236 237 238 238 240 241 242 241 242 243 243 243 244 244 246 245 241 236 235 234 236 237 239 240 241 243 243 242 243 244 245 247 248 251 253 255 260 263 262 262 263
237 238 239 239 238 236 236 238 237 238 239 239 241 242 243 242 241 242 243 243 243 243 243 244 241 238 236 237 239 239 241 242 243 245 246 246 246 248 249 250 250 253 255 258 261 264 263 263 264
239 239 240 240 239 238 237 237 238 238 239 241 241 242 243 242 242 242 243 244 244 243 241 242 241 240 240 240 241 243 244 245 245 246 248 248 250 251 251 253 255 257 258 259 261 264 265 264 265
241 240 241 242 240 238 238 238 239 238 239 241 243 243 242 242 242 243 243 243 243 243 241 242 241 242 243 243 244 246 246 246 248 248 249 250 251 253 254 255 256 257 259 259 260 263 267 268 265
243 242 241 241 241 239 237 239 240 239 239 241 242 243 243 242 241 242 242 243 243 242 243 244 245 246 246 245 246 247 247 248 250 250 251 252 254 256 257 257 258 259 261 262 262 263 265 268 268
244 244 242 241 240 239 238 238 239 240 240 241 242 243 243 242 241 241 242 243 244 245 246 246 247 249 248 247 247 249 250 250 251 253 253 254 255 257 258 258 259 261 263 263 263 264 264 265 266
244 244 243 241 240 238 238 239 241 241 240 240 241 241 242 242 241 241 242 244 246 246 247 248 249 250 251 251 249 251 252 252 253 255 256 256 257 257 258 260 261 262 263 264 265 265 266 266 267
245 245 243 242 240 240 239 239 241 243 242 241 241 241 242 243 243 243 243 244 245 246 247 249 250 251 253 254 253 252 253 253 254 255 255 256 258 259 261 261 262 262 263 264 265 265 266 266 266
246 246 243 243 240 240 240 241 242 244 244 243 242 241 242 244 244 244 244 245 246 247 248 250 251 253 255 255 256 254 254 254 255 256 257 258 259 261 262 263 263 263 264 265 264 265 266 266 267
247 246 244 243 241 241 241 241 242 244 245 244 243 243 242 244 244 244 245 245 246 248 249 251 252 253 254 254 255 256 256 256 257 257 257 258 259 261 262 264 263 263 264 265 265 266 267 267 268
248 247 245 243 242 242 241 241 241 243 244 245 243 243 244 243 244 245 246 246 247 248 250 252 254 254 254 254 256 257 257 258 259 260 260 260 261 262 263 264 264 264 264 266 266 266 266 267 268
247 246 245 244 243 243 243 242 242 242 243 244 243 243 244 244 244 245 246 247 248 249 251 252 253 254 254 255 257 258 260 261 261 260 261 262 262 262 263 264 264 264 265 266 266 266 267 267 269
247 246 245 244 244 244 245 244 243 243 244 245 245 243 243 244 245 245 245 247 249 250 251 253 253 254 255 257 257 258 259 261 262 262 262 262 263 263 264 264 264 265 266 266 266 266 266 268 269
248 246 245 244 244 244 245 244 242 243 244 245 245 244 243 244 245 245 246 247 249 251 252 254 255 256 257 258 259 259 260 262 263 264 265 264 264 265 264 264 265 266 266 266 266 266 267 267 268
249 248 247 246 245 245 246 245 244 243 244 244 244 244 243 244 246 246 247 248 249 251 253 254 255 256 258 259 260 261 262 262 263 263 265 266 266 267 266 265 266 266 266 266 266 267 267 268 269
249 248 247 246 246 246 246 246 244 244 244 244 245 246 245 244 245 246 248 249 250 251 252 254 255 257 259 259 260 261 263 263 263 264 266 266 267 267 267 266 266 266 266 266 267 267 268 269 270
247 248 248 247 247 248 247 247 246 245 244 245 245 244 244 245 245 247 249 250 251 252 253 254 255 257 259 260 260 260 262 263 263 264 265 267 267 267 267 267 267 267 267 267 268 268 269 269 270
247 249 250 250 249 249 249 248 247 245 244 244 244 244 246 246 247 249 250 251 252 254 254 254 256 258 259 260 260 261 261 262 263 265 265 267 267 266 266 266 267 268 268 268 268 268 269 270 270
248 249 251 251 250 249 249 249 246 245 244 244 245 246 248 248 249 250 252 253 254 255 256 256 257 258 259 260 261 261 261 262 263 264 265 266 267 266 266 266 267 267 268 268 267 267 269 269 270
249 250 251 251 250 250 249 250 246 246 246 245 246 247 249 250 250 251 253 254 255 256 257 258 259 259 260 260 261 261 262 263 263 264 265 266 267 267 266 266 266 267 267 268 268 269 269 269 269
250 252 253 251 249 249 248 250 247 247 248 248 247 248 250 251 252 253 254 255 256 257 258 259 260 260 260 260 260 261 261 262 263 264 265 265 265 267 267 267 267 267 267 268 269 269 270 270 269
250 251 252 251 249 249 249 250 249 250 250 250 250 249 249 251 253 254 256 257 258 259 260 260 260 260 260 260 261 262 262 262 263 264 264 265 265 266 267 268 269 267 267 268 269 269 270 270 269
250 250 251 253 252 251 249 249 250 251 251 251 251 251 252 253 255 257 258 259 260 261 261 260 260 260 261 261 262 263 263 263 262 263 264 265 266 267 268 268 269 269 269 269 270 269 269 269 269
249 250 251 253 256 255 252 251 251 251 251 251 252 253 255 256 258 259 260 261 262 262 262 262 261 261 261 262 263 262 263 263 263 263 264 266 267 267 268 268 268 269 270 270 270 270 270 270 269
248 250 250 251 254 256 255 253 254 254 254 254 254 255 257 258 259 260 261 262 263 263 263 262 263 262 263 263 263 263 263 263 264 264 265 266 267 267 268 269 269 269 269 271 271 271 271 270 269
245 246 250 253 254 257 258 257 259 258 257 256 257 258 259 259 260 261 262 263 263 263 263 263 263 264 264 264 264 264 264 264 264 264 265 265 266 267 267 268 269 270 270 271 271 272 272 271 269
244 245 248 251 254 257 260 261 262 261 258 258 259 259 261 261 261 262 262 262 262 263 263 263 264 264 264 265 265 265 264 264 264 265 266 266 266 267 267 267 269 270 271 271 271 272 273 272 270
Height
5822 5824 5826 5829 5831 5832 5834 5836 5837 5839 5840 5841 5843 5844 5846 5848 5850 5853 5852 5852 5852 5853 5854 5855 5855 5856 5857 5858 5859 5860 5861 5862 5863 5864 5864 5865 5866 5866 5866 5867 5867 5867 5868 5868 5868 5868 5868 5868 5868
5818 5820 5823 5825 5826 5828 5831 5833 5834 5835 5837 5838 5839 5841 5843 5844 5846 5847 5848 5849 5850 5851 5852 5853 5854 5854 5855 5856 5858 5859 5860 5860 5861 5862 5863 5864 5864 5865 5865 5865 5866 5866 5866 5867 5867 5867 5866 5866 5866
5813 5815 5818 5820 5821 5825 5828 5829 5831 5831 5833 5835 5836 5837 5839 5841 5842 5844 5845 5846 5847 5848 5849 5850 5851 5852 5853 5855 5856 5857 5858 5859 5859 5860 5861 5862 5862 5863 5863 5864 5864 5865 5865 5865 5865 5865 5865 5865 5865
5809 5811 5813 5815 5817 5821 5823 5825 5826 5827 5829 5831 5832 5834 5836 5838 5839 5840 5841 5843 5844 5845 5846 5847 5848 5849 5851 5852 5853 5854 5855 5856 5857 5858 5859 5859 5860 5861 5861 5862 5862 5862 5863 5863 5863 5863 5863 5863 5863
5803 5805 5808 5810 5813 5816 5818 5819 5821 5823 5824 5826 5828 5830 5832 5834 5835 5836 5838 5839 5840 5842 5843 5844 5845 5846 5848 5849 5850 5851 5852 5853 5854 5855 5856 5857 5858 5858 5859 5859 5859 5860 5860 5860 5860 5860 5860 5860 5860
5798 5800 5802 5804 5808 5811 5812 5814 5815 5818 5819 5822 5823 5825 5827 5829 5831 5832 5833 5835 5837 5838 5839 5841 5842 5843 5845 5846 5847 5848 5849 5850 5851 5852 5853 5854 5855 5855 5856 5856 5856 5857 5857 5857 5857 5857 5857 5857 5857
5793 5794 5796 5799 5802 5804 5807 5808 5810 5813 5814 5816 5818 5820 5822 5824 5826 5827 5829 5831 5833 5834 5835 5837 5839 5840 5841 5842 5844 5845 5846 5847 5848 5849 5850 5850 5851 5852 5852 5853 5853 5853 5853 5854 5854 5854 5854 5854 5853
5786 5788 5789 5792 5795 5798 5801 5802 5804 5806 5809 5811 5812 5815 5817 5819 5821 5823 5825 5826 5828 5830 5831 5833 5835 5836 5837 5838 5840 5841 5842 5843 5844 5845 5846 5846 5847 5848 5848 5849 5849 5849 5849 5850 5850 5850 5850 5850 5850
5779 5782 5783 5786 5788 5791 5794 5795 5797 5799 5802 5805 5807 5809 5811 5813 5815 5817 5820 5822 5824 5825 5827 5829 5830 5832 5833 5834 5835 5836 5837 5838 5839 5840 5841 5842 5842 5843 5844 5844 5845 5845 5845 5845 5845 5845 5845 5845 5845
5772 5774 5777 5780 5782 5784 5787 5789 5791 5793 5796 5798 5801 5803 5805 5807 5810 5812 5814 5816 5818 5820 5822 5823 5825 5827 5828 5829 5830 5831 5832 5833 5834 5835 5836 5837 5837 5838 5839 5839 5840 5840 5840 5840 5840 5840 5840 5840 5840
5765 5768 5770 5772 5775 5777 5780 5782 5784 5786 5789 5792 5795 5797 5799 5802 5804 5806 5808 5811 5812 5814 5816 5818 5820 5821 5823 5824 5825 5826 5827 5828 5829 5830 5830 5831 5832 5833 5833 5833 5834 5834 5835 5835 5835 5835 5835 5835 5835
5758 5761 5763 5765 5768 5770 5773 5775 5778 5780 5784 5786 5788 5790 5793 5795 5798 5800 5803 5805 5806 5808 5811 5812 5813 5815 5816 5818 5819 5820 5821 5822 5823 5824 5824 5825 5826 5826 5827 5827 5828 5828 5828 5828 5829 5829 5829 5829 5829
5751 5754 5756 5758 5760 5763 5765 5768 5771 5774 5776 5779 5781 5784 5786 5789 5791 5793 5796 5798 5800 5802 5804 5805 5807 5808 5810 5811 5812 5813 5814 5815 5816 5817 5818 5819 5819 5820 5820 5821 5821 5821 5822 5822 5822 5822 5822 5822 5822
5745 5746 5748 5750 5753 5755 5758 5761 5764 5767 5769 5771 5774 5777 5779 5781 5784 5786 5789 5791 5793 5795 5797 5798 5800 5802 5803 5804 5805 5806 5807 5808 5809 5810 5811 5811 5812 5813 5813 5813 5814 5814 5815 5815 5815 5815 5814 5814 5814
5737 5739 5741 5743 5745 5748 5750 5753 5757 5760 5761 5763 5766 5769 5771 5774 5776 5779 5781 5783 5786 5788 5789 5791 5793 5794 5796 5797 5798 5799 5800 5801 5802 5802 5803 5804 5804 5805 5805 5806 5806 5806 5807 5807 5807 5807 5807 5807 5807
5729 5731 5733 5736 5738 5740 5743 5746 5750 5751 5753 5756 5758 5761 5764 5766 5769 5771 5773 5776 5778 5779 5781 5783 5785 5786 5788 5789 5790 5791 5792 5793 5794 5794 5795 5795 5796 5796 5797 5797 5798 5798 5798 5798 5799 5799 5799 5799 5799
5721 5723 5726 5729 5730 5731 5734 5738 5741 5743 5744 5747 5750 5753 5755 5758 5760 5763 5765 5768 5770 5772 5773 5775 5777 5778 5780 5781 5782 5783 5784 5784 5785 5786 5786 5787 5787 5787 5788 5788 5789 5789 5789 5790 5790 5790 5790 5790 5790
5715 5716 5718 5721 5722 5724 5726 5729 5732 5734 5736 5738 5741 5744 5747 5750 5752 5754 5757 5759 5761 5763 5765 5767 5768 5770 5771 5772 5773 5774 5775 5776 5776 5777 5777 5778 5778 5778 5779 5779 5779 5780 5780 5780 5780 5780 5780 5780 5780
5707 5708 5711 5713 5714 5716 5718 5720 5722 5725 5727 5730 5732 5735 5738 5741 5744 5746 5748 5750 5752 5754 5756 5758 5759 5761 5762 5763 5764 5765 5766 5766 5767 5767 5768 5768 5768 5769 5769 5769 5769 5770 5770 5770 5770 5770 5770 5770 5769
5699 5700 5702 5704 5706 5707 5709 5711 5713 5716 5719 5721 5724 5726 5729 5732 5734 5737 5739 5741 5743 5744 5746 5748 5750 5751 5752 5754 5755 5756 5756 5757 5757 5758 5758 5758 5759 5759 5759 5759 5759 5760 5760 5760 5760 5760 5760 5759 5758
5691 5693 5695 5696 5697 5698 5700 5702 5705 5707 5710 5713 5715 5717 5720 5722 5725 5727 5729 5731 5733 5735 5736 5738 5740 5741 5742 5743 5744 5745 5746 5746 5747 5747 5748 5748 5748 5748 5748 5748 5748 5749 5749 5749 5749 5749 5749 5748 5747
5682 5685 5686 5686 5687 5689 5691 5693 5698 5699 5701 5704 5707 5709 5711 5713 5716 5718 5720 5722 5723 5725 5726 5728 5729 5730 5732 5733 5734 5735 5736 5736 5737 5737 5737 5737 5737 5737 5737 5737 5737 5737 5737 5737 5737 5737 5737 5737 5736
5675 5676 5677 5677 5678 5680 5682 5683 5689 5691 5693 5696 5699 5701 5702 5705 5707 5709 5710 5712 5713 5715 5716 5718 5719 5720 5721 5721 5722 5723 5724 5725 5725 5726 5726 5726 5726 5726 5726 5726 5726 5726 5725 5725 5725 5725 5725 5724 5724
5666 5667 5667 5667 5668 5670 5674 5675 5679 5683 5686 5688 5690 5692 5694 5696 5697 5699 5701 5702 5703 5705 5706 5707 5708 5708 5709 5710 5711 5712 5713 5714 5714 5715 5715 5715 5715 5715 5714 5714 5713 5713 5713 5713 5713 5713 5712 5712 5712
5657 5659 5659 5659 5659 5662 5666 5666 5671 5675 5677 5679 5681 5683 5685 5686 5688 5689 5691 5692 5693 5694 5695 5696 5697 5697 5698 5699 5700 5701 5701 5702 5703 5703 5703 5703 5704 5703 5703 5702 5701 5701 5701 5700 5700 5700 5700 5699 5699
5649 5651 5652 5652 5653 5655 5657 5658 5663 5666 5668 5670 5672 5674 5675 5676 5678 5679 5680 5681 5682 5683 5684 5685 5685 5686 5687 5688 5688 5689 5689 5690 5691 5691 5692 5692 5692 5692 5691 5690 5689 5689 5688 5688 5688 5687 5687 5686 5686
5641 5642 5644 5645 5645 5647 5648 5651 5654 5657 5659 5661 5663 5664 5665 5667 5668 5669 5670 5671 5671 5672 5672 5673 5674 5674 5675 5676 5676 5677 5677 5678 5679 5679 5680 5680 5680 5680 5679 5679 5678 5677 5676 5675 5675 5674 5674 5673 5673
5634 5636 5637 5637 5637 5638 5640 5643 5646 5648 5650 5652 5653 5654 5655 5657 5658 5658 5659 5660 5660 5661 5661 5662 5662 5663 5663 5664 5665 5665 5665 5666 5666 5667 5667 5667 5667 5667 5667 5666 5665 5665 5664 5663 5662 5661 5661 5660 5660
5627 5628 5629 5630 5630 5631 5633 5638 5638 5640 5641 5642 5644 5644 5646 5647 5647 5648 5649 5649 5649 5650 5650 5651 5651 5652 5652 5653 5653 5653 5653 5654 5654 5655 5655 5655 5655 5654 5654 5653 5653 5652 5651 5650 5649 5649 5648 5647 5646
5619 5620 5622 5623 5624 5624 5625 5631 5630 5631 5632 5633 5634 5635 5636 5636 5637 5638 5638 5639 5639 5640 5640 5640 5641 5641 5641 5641 5642 5642 5642 5642 5642 5642 5642 5642 5642 5641 5641 5640 5640 5639 5638 5638 5637 5636 5635 5634 5633